Temperature
17 17 17 17 17 17 17 17 16 16 16 17 17 17 17 17 17 16 16 17 16 16 16 16 16 16 16 16 16 16 15 15 15 15 15 15 15 15
17 17 17 17 17 17 17 16 16 16 16 16 17 17 16 16 16 16 16 16 16 16 16 16 16 16 16 16 15 15 15 15 15 15 15 15 15 14
17 17 17 17 17 17 16 16 16 16 16 16 16 16 16 16 16 16 16 16 16 16 16 16 16 16 16 16 15 15 15 15 15 15 14 14 14 14
17 17 17 16 16 16 16 16 16 16 16 16 16 16 16 16 16 15 16 16 16 16 16 16 16 16 15 15 15 15 15 15 14 14 14 14 14 14
16 16 16 16 16 16 16 16 16 16 16 16 16 16 16 15 15 15 15 15 15 15 15 15 15 15 15 15 15 15 15 15 14 14 14 14 14 14
16 16 16 16 16 16 16 16 16 16 15 15 15 15 15 15 15 15 15 15 15 15 15 15 15 15 15 15 15 15 14 14 14 14 14 14 14 13
16 16 16 15 15 15 15 15 15 15 15 15 15 15 15 15 15 15 14 15 15 15 15 15 15 15 15 14 14 14 14 14 14 14 14 13 13 13
16 15 15 15 15 15 15 15 15 15 15 15 15 15 15 15 14 14 14 14 14 14 14 14 14 14 14 14 14 14 14 14 13 13 13 13 13 13
15 15 15 15 15 15 15 15 15 14 14 14 14 14 14 14 14 14 14 14 14 14 14 14 14 14 14 14 14 13 13 13 13 13 13 13 12 12
15 15 15 15 14 14 14 14 14 14 14 14 14 14 14 14 14 14 14 14 14 13 13 13 13 13 13 13 13 13 13 13 13 13 12 12 12 12
15 14 14 14 14 14 14 14 14 14 14 13 14 14 14 13 13 13 13 13 13 13 13 13 13 13 13 13 13 13 13 13 12 12 12 12 12 12
14 14 14 14 14 14 14 14 14 14 13 13 13 13 13 13 13 13 13 13 13 13 13 13 13 12 12 12 12 12 12 12 12 12 12 12 11 11
14 14 14 13 13 13 13 13 13 13 13 13 13 13 13 13 13 13 13 13 13 12 13 12 12 12 12 12 12 12 12 12 12 11 11 11 11 11
13 13 13 13 13 13 13 13 13 13 13 13 13 13 13 13 13 13 12 12 12 12 12 12 12 12 12 11 11 11 11 11 11 11 11 11 11 10
13 13 13 12 12 12 13 12 12 12 12 12 12 12 12 12 12 12 12 12 12 12 12 12 12 12 11 11 11 11 11 11 11 11 11 11 10 10
13 12 12 12 12 12 12 12 12 12 12 12 12 12 12 12 12 12 12 12 12 12 11 11 11 11 11 11 11 11 11 11 11 10 10 10 10 10
12 12 12 12 12 12 12 12 12 11 11 11 11 11 11 11 11 11 11 11 11 11 11 11 11 11 11 11 11 11 11 11 11 10 10 10 10 10
12 12 12 11 11 11 11 11 11 11 11 11 11 11 11 10 10 10 10 10 10 10 10 10 10 10 10 10 10 10 10 10 10 10 10 10 10 10
11 11 11 11 11 11 11 11 11 11 10 10 10 10 10 10 10 10 10 10 10 10 10 10 10 10 10 9 10 10 10 10 10 10 10 10 10 10
11 11 11 10 10 10 10 10 10 10 10 10 10 10 10 10 10 10 9 9 9 10 10 10 10 9 9 9 9 10 10 10 10 9 9 9 9 9
10 10 10 10 10 10 10 10 10 10 10 10 10 9 9 9 9 9 9 9 9 9 9 9 9 9 9 9 9 9 9 9 9 9 9 9 9 9
10 10 10 9 9 9 9 9 9 9 9 9 9 9 9 9 9 9 9 9 9 8 8 9 9 9 9 9 9 9 9 9 9 9 9 9 9 9
10 10 9 9 9 9 9 9 9 9 9 8 8 8 8 8 8 8 8 8 8 8 8 8 8 8 8 8 8 8 8 8 8 8 9 9 9 9
Wind_Speed
4 3 3 3 3 3 3 4 4 3 4 4 3 3 3 5 7 7 8 10 13 13 14 14 14 15 15 16 16 15 15 15 14 14 13 13 12 12
3 3 3 3 2 3 3 3 4 4 4 4 4 3 2 4 6 6 7 9 11 12 14 14 14 15 16 16 16 16 15 15 15 14 13 13 12 12
3 3 4 3 2 2 2 3 3 3 4 4 3 2 2 3 3 4 5 6 7 9 11 12 13 13 14 14 15 15 15 15 15 14 14 13 13 13
4 3 4 3 3 3 2 3 3 3 4 4 3 2 3 3 2 2 3 4 5 7 9 10 11 12 13 13 13 14 15 15 15 14 14 13 13 13
4 3 4 3 3 3 3 3 3 3 3 3 3 2 2 2 1 2 3 2 4 5 7 8 10 10 11 12 13 13 14 14 14 13 13 13 13 12
3 3 4 4 4 4 3 3 3 3 2 2 2 2 2 2 1 2 2 2 3 3 3 5 6 8 9 11 11 11 12 13 13 13 12 11 11 12
3 3 4 4 5 4 3 3 3 2 2 2 2 2 2 2 2 2 3 2 3 2 1 2 2 3 5 8 10 11 12 12 12 12 11 11 12 12
4 4 3 3 3 3 4 4 4 4 4 3 3 4 5 4 3 3 2 1 3 2 2 3 2 3 4 6 8 10 11 12 12 12 11 12 12 12
5 4 4 3 2 2 3 3 3 4 6 6 5 5 5 5 4 4 4 4 4 3 2 2 2 3 4 6 8 9 10 10 11 11 12 12 12 12
5 5 4 3 3 3 3 3 3 3 4 4 5 6 5 4 5 6 5 4 2 2 2 2 2 3 3 4 6 8 9 10 10 11 11 12 12 12
3 3 3 3 4 4 3 3 3 5 5 5 6 6 6 6 4 2 2 2 2 2 2 2 2 2 2 3 4 6 9 10 11 11 11 11 11 10
2 2 3 3 4 4 3 3 4 5 4 3 3 4 4 4 5 5 5 4 2 2 3 2 2 1 1 2 2 3 4 7 10 11 11 11 10 8
2 2 3 3 4 5 5 5 7 5 3 3 3 3 2 2 3 3 4 5 4 4 3 3 2 2 2 2 2 2 3 3 4 6 8 9 10 9
2 3 3 3 4 4 4 5 5 3 2 2 2 2 2 3 3 4 4 4 5 5 4 4 3 3 2 2 2 2 2 3 3 3 4 6 8 10
2 3 3 4 3 3 4 4 3 2 2 2 3 4 3 3 3 2 2 1 1 3 3 3 3 3 3 4 3 2 2 3 3 3 3 4 4 5
1 2 3 3 1 1 2 1 1 2 3 3 4 3 2 2 2 2 2 1 1 2 2 2 3 4 3 3 4 4 3 3 4 4 4 4 4 6
0 1 2 2 2 2 2 2 2 1 2 2 2 2 2 2 2 2 2 1 2 3 3 2 2 3 4 4 3 4 4 4 4 4 4 4 5 6
2 1 0 1 1 1 2 2 2 2 2 2 2 2 3 3 2 2 1 2 3 3 3 3 1 1 2 3 5 5 4 4 4 4 4 4 6 5
2 1 0 1 1 1 1 1 2 2 2 1 2 2 2 2 2 2 2 2 3 3 3 3 2 2 3 5 4 5 5 4 4 4 5 5 6 6
1 0 1 1 1 1 1 1 1 1 1 1 1 2 2 2 2 2 2 3 3 3 3 3 3 4 5 5 4 4 6 6 5 5 4 4 3 3
1 1 1 1 1 1 1 1 1 1 1 1 1 2 2 2 2 3 3 4 3 3 4 4 5 5 3 1 2 3 3 5 6 5 4 3 3 3
2 1 1 0 0 0 1 1 1 1 1 1 1 2 2 1 2 2 2 2 3 3 4 4 3 2 1 3 4 5 4 4 4 5 6 6 5 6
2 2 1 1 0 0 0 1 1 1 1 2 2 2 2 2 2 2 2 2 2 3 3 3 2 2 2 3 4 4 4 4 3 2 4 5 7 8
Wind_Direction
217 210 213 227 216 211 197 185 185 228 254 251 248 248 235 237 239 228 230 234 232 232 233 233 231 229 228 225 225 224 223 224 225 227 229 227 225 226
215 210 226 236 235 227 214 206 195 199 232 241 236 256 251 248 252 236 234 236 236 237 234 233 233 231 228 227 226 224 223 224 225 227 228 225 223 222
227 217 229 220 224 233 219 210 209 197 227 258 240 252 238 260 273 256 249 238 242 237 235 233 232 231 229 228 226 225 225 224 224 225 226 225 223 221
232 226 239 229 225 228 219 221 221 212 207 246 258 246 240 242 250 270 264 256 246 247 240 235 235 234 231 227 226 225 225 224 222 222 222 223 226 223
227 223 232 223 236 239 232 230 229 227 209 222 253 249 252 254 272 283 281 283 270 263 247 240 239 236 232 229 227 226 225 223 220 218 220 222 223 221
224 221 226 223 230 233 233 234 228 225 219 218 247 263 261 264 220 260 289 285 274 276 262 250 244 239 235 232 228 224 222 220 217 215 215 217 220 218
232 235 238 231 224 225 229 228 223 220 218 221 242 248 256 247 238 237 253 273 277 256 270 267 246 239 239 235 228 222 217 215 214 213 212 212 215 217
230 243 248 232 232 242 243 227 210 209 217 218 231 234 239 232 229 228 226 247 272 254 216 260 227 242 238 230 230 221 216 215 214 213 213 214 216 217
227 231 242 243 217 241 272 270 253 232 208 202 220 235 235 226 216 227 225 226 237 227 191 251 250 255 255 238 226 216 214 213 212 213 216 218 218 218
229 219 220 227 227 218 241 266 269 259 235 214 218 235 237 230 212 213 222 231 258 239 182 227 247 255 261 253 230 221 216 213 212 214 217 218 215 216
238 222 207 214 232 215 206 237 267 273 262 249 245 248 252 249 222 190 199 194 255 253 211 192 239 260 265 259 245 230 221 221 219 218 219 219 220 218
263 251 233 226 237 214 205 218 247 263 274 288 288 284 271 261 227 202 197 200 219 245 223 181 209 180 284 269 253 247 236 236 232 226 221 220 218 214
257 268 264 250 252 241 219 225 239 245 248 244 256 274 280 270 245 230 208 198 205 233 218 176 192 187 198 247 261 240 229 229 226 230 229 226 219 205
239 257 260 266 268 260 240 241 242 232 235 237 241 254 258 260 258 243 237 229 224 223 218 185 193 197 196 226 254 247 232 226 212 222 226 227 223 221
233 263 269 262 268 276 268 248 230 217 217 237 244 247 248 252 256 262 262 256 271 266 231 201 191 197 195 212 227 223 230 235 216 222 218 207 210 206
299 296 298 296 275 277 307 288 240 213 211 232 246 251 255 259 258 242 237 248 275 297 298 248 212 195 210 221 217 229 219 217 220 225 219 223 221 215
308 21 17 8 4 348 339 329 302 285 259 257 251 256 259 257 260 251 220 204 221 251 275 291 282 245 219 208 226 237 232 232 221 206 209 226 231 227
122 93 21 322 288 288 296 309 309 284 268 262 255 246 247 249 261 273 236 215 227 243 252 255 278 325 323 271 225 227 231 232 228 211 204 221 239 237
114 127 208 280 284 282 275 274 284 279 260 253 259 260 257 254 249 252 250 248 250 248 251 244 232 222 254 272 266 224 221 232 219 219 219 223 237 242
123 174 269 292 290 280 264 259 276 293 278 250 254 261 262 263 261 258 254 253 257 255 259 255 238 232 235 246 254 262 233 220 220 228 236 241 248 257
237 253 267 285 297 297 294 286 283 313 326 265 254 260 257 253 261 259 258 258 253 254 259 260 258 258 255 248 279 282 261 239 222 223 224 230 252 253
218 235 254 271 322 354 356 11 14 7 0 329 281 283 284 263 256 264 259 260 260 253 260 272 280 281 235 243 260 269 276 288 275 253 225 215 215 222
222 224 228 232 259 16 40 48 40 18 358 338 327 316 307 285 265 255 260 258 261 264 271 283 291 275 260 248 254 265 264 266 275 279 282 276 257 248
Height
1535 1535 1536 1536 1536 1537 1537 1537 1538 1536 1535 1535 1535 1535 1535 1536 1536 1536 1536 1536 1535 1535 1535 1535 1535 1536 1536 1536 1536 1537 1538 1538 1539 1540 1540 1541 1541 1542
1532 1532 1533 1533 1533 1534 1534 1534 1534 1534 1532 1532 1532 1533 1533 1533 1533 1532 1532 1532 1532 1532 1532 1532 1532 1532 1532 1532 1532 1533 1533 1534 1535 1536 1536 1537 1537 1538
1529 1529 1529 1530 1530 1530 1530 1530 1530 1530 1529 1529 1529 1529 1529 1529 1529 1529 1528 1528 1528 1528 1528 1528 1528 1528 1528 1528 1528 1528 1529 1530 1531 1531 1532 1533 1533 1534
1525 1525 1526 1526 1526 1527 1527 1526 1527 1526 1526 1525 1525 1525 1526 1526 1525 1525 1525 1525 1524 1524 1524 1524 1524 1524 1524 1524 1524 1525 1525 1526 1526 1527 1528 1528 1529 1529
1522 1522 1522 1523 1522 1523 1522 1522 1523 1523 1522 1522 1521 1522 1522 1522 1521 1521 1521 1521 1521 1520 1520 1520 1520 1520 1520 1520 1520 1521 1521 1522 1522 1522 1523 1524 1525 1525
1519 1519 1519 1519 1519 1519 1519 1519 1519 1519 1519 1518 1518 1518 1518 1518 1517 1517 1516 1517 1516 1516 1516 1516 1516 1516 1516 1516 1516 1516 1517 1517 1518 1518 1519 1519 1520 1521
1515 1515 1516 1516 1515 1515 1515 1515 1515 1515 1515 1514 1514 1514 1514 1514 1513 1513 1513 1513 1512 1512 1512 1512 1512 1512 1512 1512 1512 1512 1512 1513 1513 1514 1514 1515 1516 1516
1512 1512 1512 1512 1512 1512 1512 1511 1511 1511 1511 1511 1510 1510 1510 1510 1510 1510 1510 1509 1508 1509 1508 1507 1507 1507 1507 1508 1508 1508 1508 1509 1509 1510 1510 1511 1511 1512
1508 1508 1508 1508 1508 1508 1508 1508 1507 1507 1508 1508 1507 1507 1507 1507 1506 1506 1506 1505 1504 1505 1504 1503 1503 1503 1503 1503 1504 1504 1504 1505 1505 1505 1506 1507 1507 1508
1504 1504 1503 1503 1504 1504 1504 1503 1503 1503 1503 1504 1504 1503 1503 1503 1503 1503 1502 1502 1502 1501 1501 1500 1499 1499 1499 1500 1500 1500 1500 1501 1501 1501 1502 1503 1503 1504
1500 1499 1499 1498 1499 1499 1499 1499 1499 1499 1499 1500 1500 1500 1500 1499 1499 1499 1498 1497 1496 1497 1497 1496 1495 1495 1495 1495 1496 1496 1496 1496 1497 1497 1498 1499 1500 1500
1495 1495 1495 1495 1494 1494 1495 1495 1494 1495 1495 1495 1495 1496 1495 1495 1495 1494 1494 1493 1493 1492 1492 1493 1492 1492 1491 1492 1492 1492 1492 1492 1493 1493 1494 1495 1495 1496
1491 1490 1490 1490 1490 1490 1490 1490 1490 1491 1491 1491 1490 1490 1491 1491 1490 1490 1490 1489 1489 1488 1489 1489 1488 1488 1489 1488 1488 1488 1488 1489 1489 1489 1489 1490 1491 1492
1487 1486 1486 1486 1486 1486 1486 1486 1486 1487 1487 1486 1486 1485 1486 1486 1486 1486 1486 1486 1485 1485 1485 1485 1485 1485 1485 1484 1484 1484 1484 1485 1485 1485 1485 1486 1487 1488
1483 1483 1483 1482 1482 1482 1482 1482 1482 1482 1482 1481 1481 1481 1482 1482 1482 1482 1482 1482 1482 1481 1481 1481 1481 1481 1481 1480 1480 1480 1480 1480 1481 1481 1481 1481 1482 1482
1481 1480 1480 1479 1479 1479 1478 1478 1478 1478 1477 1477 1477 1477 1477 1478 1478 1477 1477 1477 1477 1477 1478 1478 1478 1477 1477 1477 1477 1476 1476 1476 1476 1477 1477 1477 1478 1478
1478 1477 1477 1476 1475 1475 1475 1474 1474 1474 1473 1473 1473 1473 1473 1473 1473 1473 1473 1473 1473 1472 1472 1473 1474 1474 1473 1473 1472 1472 1472 1471 1472 1472 1472 1472 1473 1473
1475 1474 1474 1473 1473 1472 1471 1470 1470 1469 1469 1469 1468 1468 1468 1468 1468 1469 1468 1468 1468 1468 1469 1469 1469 1468 1468 1468 1469 1468 1467 1467 1467 1467 1468 1467 1467 1468
1472 1472 1471 1471 1470 1469 1468 1467 1466 1466 1466 1465 1465 1465 1465 1464 1464 1464 1464 1464 1464 1464 1465 1465 1465 1464 1463 1462 1462 1464 1463 1463 1463 1462 1462 1463 1462 1463
1470 1469 1469 1468 1467 1467 1466 1465 1464 1463 1462 1462 1462 1461 1461 1460 1460 1460 1459 1460 1459 1460 1460 1460 1460 1460 1459 1458 1458 1458 1459 1458 1458 1457 1457 1457 1458 1458
1468 1467 1467 1466 1465 1464 1463 1462 1461 1460 1459 1459 1459 1458 1457 1456 1456 1456 1456 1455 1455 1455 1455 1455 1455 1456 1455 1455 1454 1453 1453 1454 1454 1453 1452 1452 1452 1452
1467 1466 1465 1464 1463 1462 1460 1459 1458 1457 1457 1456 1456 1455 1454 1453 1452 1452 1452 1452 1451 1451 1451 1451 1451 1451 1450 1450 1449 1448 1448 1449 1449 1449 1449 1448 1447 1446
1464 1464 1463 1462 1461 1460 1459 1457 1456 1455 1455 1454 1453 1452 1451 1450 1449 1449 1448 1448 1448 1448 1447 1447 1446 1446 1446 1446 1445 1444 1444 1444 1443 1443 1443 1443 1443 1443